{"data":{"norad_id":53109,"epoch":"2026-05-23T21:43:13.559520Z","epoch_age_seconds":180361,"freshness":"STALE","line1":"1 53109U 22080E   26143.90501805 -.00000003  00000+0  00000+0 0  9996","line2":"2 53109  70.1430 306.6926 0008873 295.4075  64.5666  6.42583311 90505","mean_motion":6.42583311,"eccentricity":0.0008873,"inclination_deg":70.143,"raan_deg":306.6926,"arg_perigee_deg":295.4075,"mean_anomaly_deg":64.5666,"bstar":0,"rev_number":9050,"period_min":224.09545584977,"perigee_km":5832.2667927494,"apogee_km":5853.9546189282,"semimajor_km":12221.247705839,"source":"CELESTRAK","updated_at":"2026-05-25T13:38:25.532000Z"}}